TimeEDT,TemperatureF,Dew PointF,Humidity,Sea Level PressureIn,VisibilityMPH,Wind Direction,Wind SpeedMPH,Gust SpeedMPH,PrecipitationIn,Events,Conditions,WindDirDegrees,DateUTC
12:52 AM,66.9,64.0,90,30.03,10.0,West,3.5,-,0.02,,Clear,260,2013-07-27 04:52:00
1:52 AM,66.0,63.0,90,30.03,10.0,West,4.6,-,0.03,,Clear,260,2013-07-27 05:52:00
2:52 AM,66.9,64.0,90,30.04,10.0,Variable,6.9,-,0.02,,Clear,0,2013-07-27 06:52:00
3:52 AM,68.0,64.9,90,30.04,10.0,WSW,8.1,-,0.01,,Clear,250,2013-07-27 07:52:00
4:52 AM,66.9,64.9,93,30.05,10.0,WSW,8.1,16.1,0.02,,Clear,250,2013-07-27 08:52:00
5:52 AM,68.0,64.9,90,30.06,10.0,Variable,5.8,-,0.01,,Clear,0,2013-07-27 09:52:00
6:52 AM,70.0,66.0,87,30.07,10.0,Variable,3.5,-,0.01,,Clear,0,2013-07-27 10:52:00
7:52 AM,73.0,68.0,84,30.07,10.0,WSW,11.5,17.3,0.01,,Partly Cloudy,240,2013-07-27 11:52:00
8:52 AM,73.9,68.0,82,30.08,10.0,WSW,6.9,16.1,0.01,,Partly Cloudy,240,2013-07-27 12:52:00
9:52 AM,77.0,69.1,76,30.08,10.0,WSW,10.4,16.1,0.01,,Clear,250,2013-07-27 13:52:00
10:52 AM,78.1,66.9,68,30.09,10.0,Variable,6.9,20.7,0.01,,Clear,0,2013-07-27 14:52:00
11:52 AM,78.1,70.0,76,30.09,10.0,SSW,9.2,17.3,0.01,,Scattered Clouds,210,2013-07-27 15:52:00
12:52 PM,80.1,71.1,74,30.09,10.0,SW,9.2,-,0.01,,Clear,220,2013-07-27 16:52:00
1:52 PM,77.0,69.1,76,30.09,10.0,SSW,9.2,18.4,N/A,,Clear,210,2013-07-27 17:52:00
2:52 PM,78.1,70.0,76,30.08,10.0,SSW,6.9,17.3,0.01,,Clear,210,2013-07-27 18:52:00
3:52 PM,78.1,68.0,71,30.07,10.0,SW,9.2,19.6,N/A,,Clear,220,2013-07-27 19:52:00
4:52 PM,75.0,68.0,79,30.07,10.0,SSW,9.2,16.1,N/A,,Clear,210,2013-07-27 20:52:00
5:52 PM,73.0,66.9,81,30.06,10.0,SW,6.9,-,0.01,,Clear,220,2013-07-27 21:52:00
6:52 PM,72.0,66.9,84,30.06,10.0,SW,4.6,-,N/A,,Clear,220,2013-07-27 22:52:00
7:52 PM,71.1,66.9,87,30.06,10.0,SW,4.6,-,N/A,,Clear,220,2013-07-27 23:52:00
8:52 PM,68.0,66.0,93,30.08,10.0,South,3.5,-,N/A,,Scattered Clouds,190,2013-07-28 00:52:00
9:52 PM,69.1,66.0,90,30.08,10.0,Variable,3.5,-,N/A,,Mostly Cloudy,0,2013-07-28 01:52:00
10:23 PM,69.8,66.2,88,30.06,10.0,Variable,3.5,-,N/A,,Overcast,0,2013-07-28 02:23:00
10:52 PM,68.0,64.9,90,30.05,10.0,Calm,Calm,-,0.01,,Scattered Clouds,0,2013-07-28 02:52:00
11:52 PM,69.1,66.0,90,30.04,10.0,Calm,Calm,-,N/A,,Overcast,0,2013-07-28 03:52:00